{"data":{"norad_id":58908,"epoch":"2026-05-25T04:38:11.946912Z","epoch_age_seconds":65258,"freshness":"FRESH","line1":"1 58908U 24023D   26145.19319383  .00002100  00000+0  20199-3 0  9992","line2":"2 58908  49.9925  72.1049 0006464 310.4360  49.6020 14.97049033125885","mean_motion":14.97049033,"eccentricity":0.0006464,"inclination_deg":49.9925,"raan_deg":72.1049,"arg_perigee_deg":310.436,"mean_anomaly_deg":49.602,"bstar":0.00020199,"rev_number":12588,"period_min":96.189234170528,"perigee_km":571.52483296983,"apogee_km":580.5151671395,"semimajor_km":6954.1570000547,"source":"CELESTRAK","updated_at":"2026-05-25T13:38:01.048472Z"}}